Back to catalog

CZ-4 DEB

AlivePO
NORAD 26235·DEBRIS·🇨🇳 China

Launched Oct 14, 1999 from Taiyuan Satellite Launch Center

Loading…

Next Passes (next 24 hours)

TLE

AgingSource: Space-Track

Epoch: Sep 8, 2026, 07:09 UTC

1 26235U 99057DZ  26251.29839465  .06849019  30674-5  39932-2 0  9990
2 26235  98.4609  95.1295 0009610 284.4887  75.5331 16.18679124417522

Track CZ-4 DEB in real time with AllMySat

Download on the App Store